FALCON 9 R/B, 48839

Orbit data source: Space-Track

FALCON 9 R/B, 48839 is space debris in HEO originally from a launch on Sun, 06 Jun 2021 UTC launched from the Air Force Eastern Test Range (AFETR). Debris objects in space refer to the collection of defunct objects orbiting the Earth. Examples of debris include non-operational satellites, rocket bodies, and fragments generated from explosions, collisions, or faulty payload assembly.

Loading next visibility...
Identifier
48839, 2021-049B
Orbit
HEO
Country
Flag of USUS
Related business
Manufacturer
SpaceX
Mission
Spacecraft
Bus & Motor
F9ST2, Unknown motor
Mass
~4,000 kg wet, ~4,000 kg dry
Launch date (UTC)
2021-06-06 (5 years ago)
Launch vehicle
Unknown
Launch site
Air Force Eastern Test Range (AFETR)
Object type
Payload
Rocket body
Debris
Shape & HBR
Cyl, 7.8 m
Radar Cross Section
39.980 m², Large (>1 m²)

Expand to show TLE details & history
Last TLE update: 8 hours ago

TLE from 8 hours ago
0 FALCON 9 R/B
1 48839U 21049B   26093.78161245  .00076327  00000-0  17550-2 0  9997
2 48839  27.0539 293.1772 5170529  58.5720 341.9712  5.45566240 82898
Epoch: 2026-04-03T18:45Z
TLE epoch observation values (Epoch: 2026-04-03T18:45:31.315Z)
Latitude
-0.00007°
Longitude
179.66976°
Altitude
1,480.33 km
Speed
8.497 km/s
True Right ascension
19h 32m 38s
True Declination
0° 00' 00"
Sunlit
Object was in daylight at epoch
Visualization orbit readout
Latitude
Unknown
Longitude
Unknown
Altitude
Unknown
Speed
Unknown
Apparent Right ascension
Unknown
Apparent Declination
Unknown
Sunlit
N/A
Visualization observer readout
Local Sidereal Time
08:16:34
Azimuth
Unknown
Elevation
Unknown
Doppler factor
Unknown
Orbital elements
Apogee altitude
14,305.063 km
Perigee altitude
206.269 km
Semi-major axis
13,633.803 km
Eccentricity
0.51705
Inclination
27.0539°
RAAN
293.1772°
Arg. of periapsis
58.572°
True anomaly
301.55123°
Mean anomaly
341.9712°
Eccentric anomaly
324.96362°
Mean motion
1.36338 °/min
Orbital period
264.05 mins
BSTAR
0.001755
Loading maneuver chart data...
Computing Atmospheric mass density...
Loading historical data...
Loading historical data...
Loading historical data...
Loading historical data...
Loading historical data...
Loading historical data...
Loading historical data...
Other satellites on launch #49 in the year 2021 (2021-06-06 UTC)

Documentation

Showing up to 5 results
|